Home > Weather > Schwerin > Past weeks

Flag for Germany Past Weather in Schwerin, Mecklenburg-Western Pomerania, Germany — Yesterday and Last 2 Weeks

Now
91 °F

Sunny.


Feels Like: 91 °F
Forecast: 62 / 78 °F
Wind: 8 mph from West

Location: Mecklenburg-Vorpommern - Parchim

Current Time: Aug 26, 2016 at 8:52:33 PM

Latest Report: Aug 26, 2016 at 6:50 PM


Visibility: 10 mi

Pressure: 29.98 "Hg

Humidity: 36%

Dew Point: 61 °F

Location of SchwerinLocation

Past Weather in Schwerin — Graph

°F

Schwerin Temperature Yesterday

Maximum temperature yesterday: 88 °F (at 3:50 PM)
Minimum temperature yesterday: 61 °F (at 6:20 AM)
Average temperature yesterday: 79 °F

High & Low Weather Summary for the Past Weeks

 TemperatureHumidityPressure
High95 °F (Aug 26, 4:20 PM)100% (Aug 12, 7:20 AM)30.30 "Hg (Aug 12, 7:20 AM)
Low39 °F (Aug 17, 6:20 AM)29% (Aug 25, 3:50 PM)29.83 "Hg (Aug 18, 6:20 AM)
Average67 °F70%30.07 "Hg
* Reported Aug 11 6:20 PM — Aug 26 6:50 PM, Schwerin, Weather by CustomWeather, © 2016

Note: Actual official high and low records may vary slightly from our data, if they occured in-between our weather recording intervals... More about our weather records

Advertising

Schwerin Weather History for the Previous 24 Hours

Scroll right to see more
 ConditionsComfort  
Time TempWeatherWind HumidityBarometerVisibility
6:50 PM
Fri, Aug 26
91 °FSunny.8 mph36%29.98 "Hg10 mi
6:20 PM91 °FSunny.9 mph36%29.98 "Hg10 mi
5:50 PM93 °FPassing clouds.7 mph34%29.98 "HgN/A
5:20 PM95 °FPassing clouds.7 mph30%29.98 "HgN/A
4:50 PM93 °FSunny.12 mph32%29.98 "Hg10 mi
4:20 PM95 °FPassing clouds.12 mph30%29.98 "HgN/A
3:50 PM93 °FPassing clouds.12 mph32%29.98 "HgN/A
3:20 PM93 °FPassing clouds.8 mph30%29.98 "HgN/A
2:50 PM91 °FPassing clouds.10 mph32%29.98 "HgN/A
2:20 PM91 °FPassing clouds.10 mph32%29.98 "HgN/A
1:50 PM91 °FPassing clouds.12 mph34%29.98 "HgN/A
1:20 PM88 °FPassing clouds.12 mph35%29.98 "HgN/A
12:50 PM88 °FPassing clouds.10 mph38%29.98 "HgN/A
12:20 PM86 °FPassing clouds.10 mph40%29.98 "HgN/A
11:50 AM84 °FPassing clouds.8 mph40%30.01 "HgN/A
11:20 AM82 °FSunny.10 mph42%30.01 "Hg10 mi
10:50 AM81 °FPassing clouds.8 mph45%29.98 "HgN/A
10:20 AM79 °FSunny.10 mph48%30.01 "Hg10 mi
9:50 AM77 °FPassing clouds.9 mph51%30.01 "HgN/A
9:20 AM73 °FSunny.9 mph57%30.01 "Hg10 mi
8:50 AM72 °FSunny.12 mph61%30.01 "Hg10 mi
8:20 AM70 °FSunny.10 mph64%30.01 "Hg10 mi
7:50 AM68 °FSunny.5 mph69%30.01 "Hg10 mi
6:50 AM66 °FPassing clouds.5 mph68%30.01 "HgN/A
6:20 AM66 °FPassing clouds.5 mph68%30.01 "HgN/A
Weather by CustomWeather, © 2016

See weather overviewHow to use our weather pages